AMAZONAS 4A

Last updated on Tue Sep 22 2026 00:03:13 GMT+0000 (Coordinated Universal Time)

1 39616U 14011A 26264.54566427 -.00000256 00000+0 00000+0 0 9993 2 39616 0.0517 162.2459 0006183 25.1172 295.5172 1.00271076 45683
UTC large
Height (km)
Speed (km/s)
/
Latitude / Longitude
Inclination (degrees)
Orbital Period (minutes)
Azimuth
Elevation
Range (km)
Doppler Factor

Next 0 passes for location: London (51.5072 / 0.1276)

No passes found over London.
AMAZONAS 4A